Location: Chełm
(51.1339°N, 23.4725°E)
Time: 07:01:50
(UTC+01:00)

ISS - Pass Details

Date: 25 January 2019
Orbit: 403 x 411 km, 51.6° (Epoch: 18 February)

Event Time Altitude Azimuth Distance (km) Brightness Sun altitude
Rises 16:54:01 0° 198° (SSW) 2,322 0.6 -7.9°
Reaches altitude 10° 16:56:50 10° 172° (S) 1,469 -0.8 -8.4°
Maximum altitude 16:58:36 14° 139° (SE) 1,261 -1.5 -8.6°
Drops below altitude 10° 17:00:23 10° 106° (ESE) 1,477 -1.5 -8.9°
Enters shadow 17:00:41 - 102° (ESE) 1,546 -1.4 -8.9°
